Date,TemperatureHighF,TemperatureAvgF,TemperatureLowF,DewpointHighF,DewpointAvgF,DewpointLowF,HumidityHigh,HumidityAvg,HumidityLow,PressureMaxIn,PressureMinIn,WindSpeedMaxMPH,WindSpeedAvgMPH,GustSpeedMaxMPH,PrecipitationSumIn
2013-1-1,60.3,50.6,41.9,58.7,47.1,37.3,95,88,77,29.64,29.37,8,3,8,0.08
2013-1-2,44.8,40.7,37.1,37.3,31.6,29.1,83,70,55,29.72,29.62,7,2,7,0.00
2013-1-3,45.9,41.4,37.1,33.0,31.3,29.4,80,68,56,29.85,29.70,7,2,7,0.00
2013-1-4,42.8,40.1,37.1,38.7,36.4,32.5,92,87,67,29.90,29.77,5,2,6,0.11
2013-1-5,56.9,45.5,38.2,46.1,40.0,34.6,90,82,64,29.78,29.62,6,1,6,0.00
2013-1-6,58.3,43.8,35.5,36.0,32.4,29.6,91,68,36,29.79,29.68,7,2,7,0.00
2013-1-7,56.2,45.4,34.0,44.8,35.4,27.2,80,69,53,29.73,29.45,8,2,8,0.00
2013-1-8,56.5,51.1,47.5,55.4,49.4,44.3,96,94,80,29.45,29.25,7,2,7,0.43
2013-1-9,63.5,57.4,50.9,58.8,55.0,48.4,97,92,83,29.45,29.27,12,3,12,1.28
2013-1-10,64.6,54.1,45.0,49.0,45.5,42.0,95,75,49,29.47,29.39,19,4,19,0.00
2013-1-11,68.6,59.3,43.6,65.0,55.0,40.1,93,86,76,29.44,29.24,10,2,10,0.00
2013-1-12,73.1,67.2,52.0,67.9,62.2,40.1,95,85,58,29.27,29.09,13,4,13,0.00
2013-1-13,53.1,46.2,39.2,40.4,32.0,27.6,65,58,43,29.56,29.26,12,5,14,0.00
2013-1-14,52.2,41.7,35.1,35.6,29.2,23.2,71,61,51,29.63,29.49,10,4,10,0.00
2013-1-15,42.1,37.7,34.7,35.8,32.6,24.3,92,82,66,29.65,29.49,9,4,9,0.00
2013-1-16,52.7,40.8,32.0,24.3,20.5,14.0,65,46,22,29.75,29.59,14,3,14,0.00
2013-1-17,64.8,48.8,34.0,36.7,31.1,22.5,71,53,31,29.88,29.70,7,2,7,0.00
2013-1-18,63.0,48.8,35.6,40.2,33.8,28.1,77,58,37,29.92,29.72,10,2,10,0.00
2013-1-19,66.6,50.7,37.6,49.3,39.5,31.8,85,67,46,29.73,29.57,12,2,12,0.00
2013-1-20,69.1,54.2,40.7,55.6,45.0,35.7,88,72,50,29.67,29.52,9,2,9,0.00
2013-1-21,72.0,56.5,43.6,58.2,47.6,39.3,89,73,51,29.65,29.55,7,2,8,0.00
2013-1-22,70.9,58.3,46.6,53.8,47.5,41.1,82,69,51,29.72,29.61,11,2,11,0.00
2013-1-23,73.6,60.7,47.5,59.6,52.7,42.9,89,76,59,29.76,29.62,12,2,12,0.00
2013-1-24,76.9,65.1,57.8,64.8,59.2,54.5,94,82,63,29.68,29.53,10,3,10,0.00
2013-1-25,77.6,67.3,60.5,64.7,60.7,57.0,92,80,62,29.58,29.45,12,3,12,0.00
2013-1-26,70.2,62.6,55.6,61.1,57.6,53.2,92,84,72,29.58,29.45,8,2,8,0.00
2013-1-27,78.1,67.8,59.4,66.4,62.4,56.9,93,83,65,29.51,29.37,17,5,17,0.00
2013-1-28,74.7,70.7,67.9,68.1,66.0,64.6,91,85,75,29.47,29.30,14,5,14,0.00
2013-1-29,83.2,70.5,56.2,68.4,56.7,26.3,89,66,31,29.30,28.94,21,6,21,0.00
2013-1-30,58.5,51.6,39.1,27.0,19.7,11.3,47,29,17,29.65,29.25,20,5,20,0.00
2013-1-31,66.6,49.0,34.2,27.0,23.1,19.6,58,39,19,29.72,29.59,14,3,14,0.00
2013-2-1,70.6,56.5,42.5,45.8,36.5,27.6,72,49,29,29.75,29.59,13,3,13,0.00
2013-2-2,73.6,58.5,45.0,56.3,46.3,37.5,80,65,47,29.69,29.58,12,2,12,0.00
2013-2-3,71.5,60.7,50.0,52.2,44.2,36.7,73,56,36,29.75,29.44,9,2,9,0.00
2013-2-4,74.3,63.8,56.5,60.5,55.6,50.2,86,75,57,29.44,29.23,12,3,12,0.00
2013-2-5,79.2,64.1,50.8,51.2,46.2,37.6,89,57,26,29.42,29.30,4,1,4,0.00
2013-2-6,76.0,65.4,59.4,62.0,57.1,48.0,87,75,59,29.41,29.26,8,2,8,0.02
2013-2-7,77.6,66.4,59.4,64.2,56.9,40.0,91,73,39,29.48,29.30,10,3,10,0.01
2013-2-8,70.2,59.2,48.4,47.4,38.3,32.3,73,48,27,29.64,29.48,11,3,11,0.00
2013-2-9,68.0,59.5,51.7,65.9,54.2,34.9,94,84,49,29.50,29.21,10,3,10,0.04
2013-2-10,68.6,64.3,57.6,65.9,44.8,28.1,94,54,25,29.44,29.18,13,3,13,0.05
2013-2-11,60.8,56.0,51.5,49.3,44.3,35.6,91,66,46,29.47,29.36,10,3,10,0.00
2013-2-12,72.0,59.4,50.8,55.2,43.6,23.7,94,64,21,29.47,29.24,16,3,16,0.01
2013-2-13,64.4,51.2,40.3,35.7,31.1,25.6,72,49,24,29.56,29.42,11,2,11,0.00
2013-2-14,68.9,52.3,35.6,41.9,35.3,27.8,77,55,34,29.55,29.41,13,2,13,0.00
2013-2-15,67.0,52.4,40.5,44.3,36.6,21.9,85,57,34,29.78,29.49,9,3,9,0.00
2013-2-16,64.8,49.6,33.5,32.2,26.4,20.4,61,42,26,29.87,29.63,12,2,12,0.00
2013-2-17,70.2,54.7,37.8,51.9,37.6,25.7,71,53,38,29.63,29.40,18,5,18,0.00
2013-2-18,79.6,66.9,59.0,61.2,48.3,25.2,83,57,22,29.48,29.27,17,5,17,0.00
2013-2-19,67.7,57.9,46.3,33.9,31.2,27.6,57,38,24,29.65,29.47,13,4,13,0.00
2013-2-20,68.0,59.9,53.8,64.4,51.1,26.7,92,75,30,29.53,29.08,13,4,13,0.02
2013-2-21,77.0,67.8,54.4,64.9,42.6,18.0,90,50,12,29.28,29.01,17,5,17,0.00
2013-2-22,66.6,55.1,48.2,39.3,33.5,24.3,68,45,31,29.43,29.28,10,3,10,0.00
2013-2-23,73.6,55.5,42.1,43.8,34.8,28.4,60,47,25,29.47,29.28,9,2,9,0.00
2013-2-24,71.3,58.2,41.4,57.7,47.7,32.8,86,69,57,29.33,29.05,11,3,11,0.00
2013-2-25,61.9,54.1,46.8,59.8,32.6,16.9,93,47,18,29.30,29.01,26,9,26,0.03
2013-2-26,67.3,52.9,39.6,32.9,27.6,24.6,59,40,24,29.38,29.26,12,4,12,0.00
2013-2-27,63.9,53.5,42.7,33.7,28.0,21.4,63,39,23,29.64,29.29,17,4,17,0.00
2013-2-28,61.2,49.8,40.9,29.5,25.0,20.1,53,39,24,29.74,29.60,10,3,10,0.00
2013-3-1,70.0,51.7,34.2,31.4,21.3,9.3,60,35,11,29.70,29.52,13,2,13,0.00
2013-3-2,65.0,52.1,41.2,29.2,26.0,20.7,53,37,25,29.83,29.67,12,3,12,0.05
2013-3-3,75.6,56.4,37.3,42.0,32.3,24.0,60,43,22,29.68,29.38,17,5,17,0.00
2013-3-4,86.2,65.9,48.1,52.7,44.3,39.0,76,50,22,29.38,29.15,13,4,13,0.00
2013-3-5,65.7,56.6,42.5,54.0,27.3,11.3,90,38,16,29.77,29.21,17,5,17,0.00
2013-3-6,66.2,49.1,34.0,23.2,18.4,11.7,47,31,18,29.84,29.63,2,0,2,0.00
2013-3-7,74.2,57.9,41.6,53.6,43.2,22.7,74,59,37,29.64,29.51,0,0,0,0.00
2013-3-8,68.2,63.5,60.1,63.7,58.3,52.2,89,83,73,29.55,29.41,0,0,0,0.02
2013-3-9,77.0,67.3,63.0,68.5,62.9,58.8,93,86,71,29.44,29.05,0,0,0,0.12
2013-3-10,67.3,60.2,57.8,63.2,48.0,33.0,96,67,33,29.39,29.08,0,0,0,0.60
2013-3-28,64.8,63.8,63.0,56.7,55.7,55.3,76,75,74,29.59,29.57,0,0,0,0.00
2013-3-29,79.0,72.9,65.2,60.3,58.1,57.1,82,60,49,29.59,29.46,0,0,0,0.00
2013-3-30,82.6,70.4,65.2,66.1,61.4,58.4,82,74,55,29.53,29.42,0,0,0,0.00
2013-9-18,78.8,74.3,73.4,71.5,68.0,67.3,82,81,78,29.39,29.35,0,0,0,0.35
2013-9-19,91.4,79.9,73.4,77.1,70.9,65.6,82,74,57,29.39,29.25,0,0,0,0.01
2013-9-20,80.8,75.5,70.6,74.5,68.7,62.2,83,79,72,29.31,29.20,0,0,0,0.62
2013-9-21,85.0,73.4,65.2,66.1,62.2,53.1,83,70,34,29.35,29.26,0,0,0,0.00
2013-9-22,88.4,71.2,58.3,55.6,50.9,47.9,73,51,29,29.34,29.21,0,0,0,0.00
2013-9-23,91.3,72.5,56.7,60.4,52.0,48.6,76,52,28,29.28,29.19,0,0,0,0.00
2013-9-24,95.2,78.3,63.0,62.4,57.8,53.4,73,52,30,29.37,29.26,0,0,0,0.00
2013-9-25,95.0,79.9,67.1,66.8,60.5,57.2,74,53,35,29.34,29.22,0,0,0,0.00
2013-9-26,92.2,80.0,68.4,72.0,65.6,56.3,81,63,43,29.34,29.24,0,0,0,0.00
2013-9-27,90.9,81.1,75.4,78.6,72.6,69.0,82,76,59,29.35,29.25,0,0,0,0.04
2013-9-28,88.6,80.8,76.1,76.3,73.1,70.3,82,78,64,29.40,29.30,0,0,0,0.00
2013-9-29,77.4,71.0,66.2,70.5,64.0,58.2,83,79,70,29.47,29.36,0,0,0,2.30
2013-9-30,88.6,74.0,61.2,67.2,60.5,55.1,83,65,39,29.39,29.24,0,0,0,0.00
2013-10-1,91.1,78.9,68.9,75.3,69.2,61.0,82,73,50,29.36,29.26,0,0,0,0.02
2013-10-2,90.4,81.1,75.8,74.5,71.0,67.5,82,72,53,29.39,29.29,0,0,0,0.00
2013-10-3,90.4,80.8,73.8,74.2,70.3,67.3,83,71,54,29.37,29.26,0,0,0,0.00
2013-10-4,90.9,80.1,73.1,72.7,69.7,67.5,83,72,51,29.36,29.26,0,0,0,0.00
2013-10-5,88.2,77.2,63.4,71.3,65.3,44.0,83,68,50,29.46,29.31,0,0,0,0.00
2013-10-6,78.1,65.4,53.6,52.5,45.6,37.7,84,53,25,29.57,29.45,0,0,0,0.14
2013-10-7,83.7,66.8,52.0,51.6,45.1,38.8,73,50,23,29.60,29.47,0,0,0,0.00
2013-10-8,83.9,68.1,53.3,53.8,48.7,44.8,76,53,32,29.52,29.41,0,0,0,0.00
2013-10-9,83.5,70.1,56.7,63.4,56.5,47.3,81,63,46,29.49,29.37,0,0,0,0.00
2013-10-10,86.6,74.4,64.8,68.3,63.3,58.9,82,70,50,29.46,29.30,0,0,0,0.00
2013-10-11,89.6,79.2,71.6,74.9,70.4,64.0,83,75,57,29.37,29.26,0,0,0,0.00
2013-10-12,90.7,81.3,75.8,75.4,72.2,69.5,82,75,55,29.44,29.33,0,0,0,0.02
2013-10-13,77.2,72.4,66.1,71.3,65.0,58.6,83,78,72,29.59,29.43,0,0,0,0.65
2013-10-14,83.9,76.3,71.5,73.6,68.0,62.9,83,76,69,29.52,29.34,0,0,0,0.01
2013-10-15,85.3,75.1,64.4,72.6,68.1,58.9,83,79,63,29.42,29.30,0,0,0,0.00
2013-10-16,63.7,58.3,54.5,58.2,52.6,47.6,84,82,76,29.49,29.37,0,0,0,0.74
2013-10-17,73.3,62.0,52.9,55.6,52.1,48.5,85,71,54,29.55,29.41,0,0,0,0.00
2013-10-18,74.5,65.2,57.4,65.7,58.8,51.3,83,80,74,29.43,29.30,0,0,0,0.01
2013-10-19,67.0,59.0,50.8,60.6,46.0,39.6,84,64,39,29.60,29.41,0,0,0,0.00
2013-10-20,74.2,58.9,45.7,54.0,46.8,40.2,83,66,46,29.52,29.35,0,0,0,0.00
2013-10-21,79.2,68.7,60.5,67.7,60.6,51.2,83,75,66,29.47,29.32,0,0,0,0.00
2013-10-22,73.4,63.5,55.6,55.2,46.3,37.8,81,57,28,29.59,29.47,0,0,0,0.00
2013-10-23,79.6,62.9,49.7,50.6,44.8,41.3,73,55,31,29.61,29.52,0,0,0,0.00
2013-10-24,79.4,64.3,50.6,54.6,49.0,43.1,76,59,38,29.65,29.55,0,0,0,0.00
2013-10-25,79.6,66.6,53.3,62.6,56.3,48.0,83,70,53,29.73,29.61,0,0,0,0.00
2013-10-26,81.7,71.5,64.6,66.8,62.5,59.3,84,74,57,29.64,29.50,0,0,0,0.00
2013-10-27,80.1,70.9,65.7,69.0,64.0,60.4,83,79,69,29.53,29.42,0,0,0,0.00
2013-10-28,83.2,74.1,67.9,69.6,65.6,62.2,83,75,60,29.50,29.39,0,0,0,0.00
2013-10-29,84.1,75.9,71.3,71.5,67.7,65.3,83,76,61,29.51,29.39,0,0,0,0.00
2013-10-30,82.6,76.8,73.3,74.6,70.2,66.5,83,80,74,29.46,29.24,0,0,0,1.15
2013-10-31,79.6,72.1,58.3,68.7,55.7,41.3,83,60,26,29.32,29.23,0,0,0,0.30
2013-11-1,82.4,65.5,51.3,60.3,47.7,39.4,81,57,24,29.49,29.26,0,0,0,0.00
2013-11-2,72.0,62.6,52.4,44.8,39.8,34.6,64,45,26,29.72,29.50,0,0,0,0.00
2013-11-3,70.0,58.1,44.8,51.8,41.5,37.0,74,56,34,29.64,29.45,0,0,0,0.00
2013-11-4,70.9,64.7,60.1,60.9,57.0,51.9,82,76,69,29.48,29.38,0,0,0,0.02
2013-11-5,78.5,71.7,65.7,68.4,64.5,59.6,82,78,68,29.44,29.32,0,0,0,0.02
2013-11-6,76.1,65.3,55.1,69.9,56.8,41.8,83,74,60,29.72,29.40,0,0,0,0.11
2013-11-7,62.8,54.4,47.3,42.4,38.3,33.7,67,55,37,29.86,29.72,0,0,0,0.00
2013-11-8,65.0,57.1,49.9,46.0,42.6,38.5,74,59,41,29.79,29.59,0,0,0,0.00
2013-11-9,69.8,61.5,54.7,58.9,53.2,45.5,83,74,64,29.61,29.53,0,0,0,0.13
2013-11-10,67.7,63.5,61.7,59.1,56.9,56.0,83,79,72,29.71,29.58,0,0,0,0.00
2013-11-11,74.9,64.3,57.2,58.3,54.8,51.8,83,72,54,29.69,29.57,0,0,0,0.00
2013-11-12,62.6,55.6,45.2,54.4,46.5,28.5,82,72,52,30.01,29.65,0,0,0,0.00
2013-11-13,55.8,44.4,35.5,31.9,27.5,24.8,67,52,36,30.03,29.80,0,0,0,0.00
2013-11-14,61.2,48.7,33.7,45.3,35.1,26.2,74,61,41,29.79,29.47,0,0,0,0.00
2013-11-15,75.6,62.6,51.1,58.7,52.8,45.6,82,71,55,29.46,29.30,0,0,0,0.00
2013-11-16,79.9,71.7,63.5,68.2,64.3,57.2,82,78,67,29.35,29.19,0,0,0,0.00
2013-11-17,85.3,75.8,68.0,70.7,67.2,62.4,82,75,58,29.38,29.22,0,0,0,0.00
2013-11-18,78.1,68.9,61.4,68.0,61.6,54.9,83,78,67,29.53,29.37,0,0,0,0.00
2013-11-19,70.7,63.8,56.2,60.8,51.9,45.4,81,66,52,29.55,29.42,0,0,0,0.00
2013-11-20,73.4,66.2,59.4,64.2,59.0,52.9,82,77,71,29.44,29.31,0,0,0,0.00
2013-11-21,78.7,73.2,69.5,71.6,67.2,63.4,83,81,78,29.48,29.36,0,0,0,0.03
2013-11-22,73.1,46.1,36.0,67.3,41.5,32.1,87,84,78,29.76,29.47,0,0,0,0.19
2013-11-23,41.4,38.8,36.4,36.6,34.5,32.5,86,84,80,29.83,29.74,0,0,0,0.00
2013-11-24,41.4,38.3,34.7,37.2,33.9,30.5,87,84,74,29.85,29.70,0,0,0,0.34
2013-11-25,41.6,39.2,34.6,37.4,34.6,29.5,86,84,80,29.72,29.46,0,0,0,0.39
2013-11-26,49.9,42.3,37.8,36.6,33.5,28.6,84,71,55,29.77,29.52,0,0,0,0.01
2013-11-27,50.2,41.3,35.1,29.7,26.2,20.7,72,56,33,29.88,29.74,0,0,0,0.00
2013-11-28,55.4,41.7,32.9,33.5,28.9,26.0,79,62,38,29.84,29.73,0,0,0,0.00
2013-11-29,62.1,49.5,34.9,51.4,41.8,26.8,85,75,67,29.89,29.74,0,0,0,0.00
2013-11-30,68.8,59.3,51.3,58.1,51.6,44.2,81,76,69,29.79,29.60,0,0,0,0.00
2013-12-1,70.4,62.5,58.5,60.9,56.3,53.2,84,80,70,29.62,29.39,0,0,0,0.00
2013-12-2,77.8,65.7,59.0,61.5,55.9,51.8,84,72,48,29.39,29.13,0,0,0,0.00
2013-12-3,81.9,66.0,54.9,61.5,50.9,45.4,84,62,30,29.16,29.05,0,0,0,0.00
2013-12-4,74.9,62.6,54.2,65.8,55.6,45.9,83,78,65,29.22,29.11,0,0,0,0.00
2013-12-5,67.0,48.7,34.0,60.1,41.3,27.5,84,76,66,29.47,29.21,0,0,0,0.00
2013-12-6,40.0,33.9,30.2,32.0,28.0,23.2,86,79,70,29.80,29.43,0,0,0,0.00
2013-12-7,34.2,31.5,27.7,25.4,23.6,19.5,83,73,67,29.82,29.66,0,0,0,0.00
2013-12-8,51.1,39.7,29.5,41.8,33.3,25.2,85,78,69,29.66,29.42,0,0,0,0.00
2013-12-9,43.7,41.0,34.9,39.0,36.5,30.5,86,84,81,29.76,29.45,0,0,0,0.00
2013-12-10,47.9,37.3,30.2,30.8,25.8,22.6,86,65,38,29.89,29.73,0,0,0,0.00
2013-12-11,60.5,44.5,31.0,37.1,30.8,24.3,77,61,34,29.93,29.72,0,0,0,0.00
2013-12-12,52.9,44.3,36.2,37.6,33.0,28.4,74,65,54,29.99,29.71,0,0,0,0.00
2013-12-13,50.4,48.2,46.3,45.6,40.2,34.3,85,74,63,29.72,29.32,0,0,0,0.00
2013-12-14,56.2,49.1,42.5,44.5,37.9,29.3,85,67,47,29.74,29.32,0,0,0,0.00
2013-12-15,58.3,43.1,34.0,34.3,29.1,25.4,73,59,38,29.81,29.70,0,0,0,0.00
2013-12-18,69.1,63.7,57.2,53.7,49.5,46.4,78,61,50,29.70,29.47,0,0,0,0.00
2013-12-19,74.2,64.4,58.0,62.5,57.1,50.8,83,78,64,29.47,29.23,0,0,0,0.00
2013-12-20,74.3,68.1,62.6,65.9,62.0,57.1,84,81,74,29.28,29.04,0,0,0,0.00
2013-12-21,69.8,62.8,47.3,64.4,50.8,37.4,85,67,32,29.27,28.96,0,0,0,0.00
2013-12-22,58.1,48.5,40.1,43.0,37.3,30.0,81,66,51,29.76,29.26,0,0,0,0.00
2013-12-23,57.1,43.0,32.6,30.4,27.7,23.9,80,57,31,29.93,29.75,0,0,0,0.00
2013-12-24,58.3,43.9,30.6,35.8,29.0,24.6,80,58,34,29.93,29.67,0,0,0,0.00
2013-12-25,58.7,49.1,39.1,49.0,42.1,34.0,85,77,66,29.78,29.63,0,0,0,0.00
2013-12-26,52.6,48.0,43.4,43.7,39.7,35.3,83,73,64,29.83,29.72,0,0,0,0.00
2013-12-27,54.2,48.7,44.6,47.3,43.5,40.4,85,82,74,29.83,29.72,0,0,0,0.26
2013-12-28,57.2,49.7,43.7,48.2,43.6,39.5,85,79,68,29.72,29.44,0,0,0,0.00
2013-12-29,62.5,48.8,36.4,52.0,42.4,30.8,85,79,65,29.65,29.39,0,0,0,0.00
2013-12-30,43.9,38.6,35.3,31.7,28.6,24.3,81,68,55,29.78,29.61,0,0,0,0.00
2013-12-31,52.9,42.6,36.2,34.3,31.2,28.9,80,65,47,29.85,29.64,0,0,0,0.00
2014-1-1,58.1,48.9,37.8,48.1,40.2,30.0,80,72,65,29.64,29.44,0,0,0,0.00
2014-1-2,51.5,44.3,34.2,46.5,30.1,24.3,84,59,39,29.86,29.51,0,0,0,0.00